SL-14 DEB

Satellite information

Favourite Embed

Satellite Type and Status

DEBRISIN ORBIT

Key statistics

Satellite SL-14 DEB at a glance.

Uptime

13838

Days in orbit

Revolutions

≈ 14.5

Per day

Orbit

LEO

Low Earth Orbit

Inclination

83.0

Latest

Satellite identification and parameters

Extended collection of information and parameters for SL-14 DEB.

Object identification

Identified? True

Debris? True

Object name: SL-14 DEB

International designator: 1987-068CZ

Object number (NORAD): 39973

Object ID (CCSDS): 39973

Country: COMMONWEALTH OF INDEPENDENT STATES (CIS)

Current information (Y/N): Y

RCS size: SMALL

Orbital parameters

Period: 99.239 minutes

Inclination: 83.0272 deg

SMA: 7100.393 km

Apoapsis: 736.219 km

Periapsis: 708.298 km

RAAN: 204.1974 deg

Eccentricy: 0.0019662

Argument of periapsis: 199.7134 deg

Mean anomaly: 160.3307 deg

Mean motion: 14.5103917 rev/day

Mean motion (dot): 0.00003561 rev/day2

B* drag term: 0.00089316 1/REarth

Two-line elements (TLE)

Creation date: July 2, 2025, 2:08 a.m.

Reference frame: TEME

Reference center: EARTH

Epoch: July 1, 2025, 7:03 p.m. UTC

TLE line 0: 0 SL-14 DEB

TLE line 1: 1 39973U 87068CZ 25182.79426187 .00003561 00000-0 89316-3 0 9997

TLE line 2: 2 39973 83.0272 204.1974 0019662 199.7134 160.3307 14.51039170579675

Live tracking on map

Real-time ground track for satellite SL-14 DEB.

In-orbit conjunctions

A list of the most updated potential collisions computed for object SL-14 DEB.

Target Orbit TCA Probability of collision Miss distance Type
FENGYUN 1C DEB SSO 2025-03-27 01:37:07 0.0001768242 78.0 (m) DEBRIS
COSMOS 2251 DEB LEO 2025-02-25 21:03:07 0.0001305789 103.0 (m) DEBRIS
TIROS 4 LEO 2024-10-28 10:32:35 0.0001333801 65.0 (m) PAYLOAD

Associated space launch

Second generation soviet meteorological satellite

SL-14 DEB was lifted into orbit during the mission ‘Tsiklon-3 | Meteor-2 16’, on board a Tsiklon-3 space rocket.

The launch took place on Aug. 18, 1987, 2:27 a.m. from 32/1.

For more information about the launch, click the button.

Launch to space Tsiklon-3 | Meteor-2 16
Tsiklon-3 | Meteor-2 16

Agency: N/A

Status: Launch Successful

Launch date: Aug. 18, 1987, 2:27 a.m. UTC

Rocket: Tsiklon-3

Launch pad: 32/1

Location: Plesetsk Cosmodrome, Russian Federation

...

Latest news about this satellite

There are no fresh news available about this satellite. Check back as we update our databases every day.


Newsletter sign-up

Weekly statistics, charts and insights to help you stay on top of the space industry.